Paducah, KY

3:26 AM CST on November 18, 2017 (GMT -0600)
Barkley Regional

Weather History for KPAH - February, 2012

Change the Weather History Date:

Saturday, February 18, 2012

  Actual Average Record
Temperature  
Mean Temperature 41 °F 40 °F  
Max Temperature 48 °F 50 °F 71 °F (1961)
Min Temperature 34 °F 30 °F 0 °F (2015)
Degree Days  
Heating Degree Days 24 25  
Month to date heating degree days 451 490  
Since 1 July heating degree days 2623 3063  
Cooling Degree Days 0 0  
Month to date cooling degree days 0 0  
Year to date cooling degree days 0 0  
Moisture  
Dew Point 34 °F    
Average Humidity 74    
Maximum Humidity 92    
Minimum Humidity 56    
Precipitation  
Precipitation 0.00 in 0.14 in 2.00 in (1940)
Month to date precipitation 1.60 2.52  
Year to date precipitation 5.15 6.20  
Snow  
Snow 0.00 in 0.10 in 3.60 in (2006)
Month to date snowfall 0.3 2.2  
Since 1 July snowfall 0.7 7.5  
Snow Depth 0.00 in    
Sea Level Pressure  
Sea Level Pressure 30.08 in    
Wind  
Wind Speed 6 mph (NNE)    
Max Wind Speed 16 mph    
Max Gust Speed 20 mph    
Visibility 8 miles    
Events      
T = Trace of Precipitation, MM = Missing Value Source: NWS Daily Summary

Daily Weather History Graph

Daily Weather History Graph

Search for Another Location

Airport or City:

Trip Planner

Search our weather history database for the weather conditions in past years. The results will help you decide how hot, cold, wet, or windy it might be!

Date:

Astronomy

Feb. 18, 2012 Rise Set
Actual Time 6:40 AM CST 5:37 PM CST
Civil Twilight 6:14 AM CST 6:04 PM CST
Nautical Twilight 5:44 AM CST 6:34 PM CST
Astronomical Twilight 5:13 AM CST 7:04 PM CST
Moon 4:16 AM CST 2:37 PM CST
Length of Visible Light 11h 49m
Length of Day
10h 56m
Waning Crescent, 11% of the Moon is Illuminated
Feb 18
Waning Crescent
Feb 21
New
Feb 29
First Quarter
Mar 8
Full
Mar 14
Last Quarter

Hourly Weather History & Observations

Time (CST) Temp. Windchill Dew Point Humidity Pressure Visibility Wind Dir Wind Speed Gust Speed Precip Events Conditions
12:53 AM 36.0 °F - 34.0 °F 93% 30.12 in 8.0 mi Calm Calm - N/A   Clear
1:53 AM 37.9 °F - 35.1 °F 89% 30.12 in 8.0 mi Calm Calm - N/A   Clear
2:53 AM 37.0 °F - 35.1 °F 93% 30.11 in 7.0 mi Calm Calm - N/A   Clear
3:53 AM 35.1 °F - 33.1 °F 92% 30.08 in 6.0 mi Calm Calm - N/A   Partly Cloudy
4:53 AM 35.1 °F - 33.1 °F 92% 30.09 in 6.0 mi Calm Calm - N/A   Overcast
5:53 AM 37.0 °F - 35.1 °F 93% 30.10 in 6.0 mi Calm Calm - N/A   Overcast
6:53 AM 37.0 °F - 35.1 °F 93% 30.10 in 5.0 mi Calm Calm - N/A   Overcast
7:53 AM 39.9 °F - 36.0 °F 86% 30.11 in 6.0 mi Calm Calm - N/A   Overcast
8:53 AM 42.1 °F - 37.0 °F 82% 30.12 in 6.0 mi Calm Calm - N/A   Haze
9:53 AM 44.1 °F 40.1 °F 37.0 °F 76% 30.12 in 8.0 mi North 6.9 mph - N/A   Overcast
10:53 AM 45.0 °F 39.7 °F 36.0 °F 71% 30.13 in 9.0 mi NNE 10.4 mph - N/A   Overcast
11:53 AM 46.0 °F 41.4 °F 36.0 °F 68% 30.11 in 10.0 mi NNE 9.2 mph - N/A   Overcast
12:53 PM 46.9 °F - 33.1 °F 59% 30.09 in 10.0 mi NNE 11.5 mph - N/A   Overcast
1:53 PM 48.0 °F - 33.1 °F 56% 30.06 in 10.0 mi NNE 13.8 mph - N/A   Overcast
2:53 PM 46.4 °F 42.4 °F 32.0 °F 57% 30.05 in 10.0 mi NE 8.1 mph - N/A   Mostly Cloudy
3:53 PM 46.0 °F 41.0 °F 33.1 °F 61% 30.05 in 10.0 mi NNE 10.4 mph - N/A   Partly Cloudy
4:53 PM 45.0 °F 40.1 °F 32.0 °F 60% 30.05 in 10.0 mi NNE 9.2 mph - N/A   Overcast
5:53 PM 44.1 °F 39.5 °F 32.0 °F 63% 30.06 in 10.0 mi NNE 8.1 mph - N/A   Overcast
6:53 PM 43.0 °F 37.7 °F 30.9 °F 62% 30.05 in 10.0 mi NE 9.2 mph - N/A   Mostly Cloudy
7:53 PM 42.1 °F 36.1 °F 32.0 °F 67% 30.04 in 10.0 mi NNE 10.4 mph - N/A   Overcast
8:53 PM 42.1 °F 35.7 °F 30.9 °F 65% 30.04 in 10.0 mi NNE 11.5 mph - N/A   Overcast
9:53 PM 42.1 °F 36.1 °F 30.9 °F 65% 30.02 in 10.0 mi NNE 10.4 mph - N/A   Overcast
10:53 PM 41.0 °F 34.7 °F 32.0 °F 70% 30.03 in 10.0 mi North 10.4 mph - N/A   Overcast
11:53 PM 41.0 °F 35.2 °F 30.9 °F 67% 30.03 in 10.0 mi NNE 9.2 mph - N/A   Overcast